Miscellaneous Local Product
Issued by NWS Hastings, NE

Home | Current Version | Previous Version | Graphics & Text | Print | Product List | Glossary On
Versions: 1 2 3 4 5 6 7 8 9 10 11 12 13 14 15 16 17 18 19 20 21 22 23 24 25 26 27 28 29 30 31 32 33 34 35 36 37 38 39 40 41 42 43 44 45 46 47 48 49 50
657
AXUS43 KGID 241302
MISGRI

GID CWA HOURLY WEATHER ROUNDUP
NATIONAL WEATHER SERVICE HASTINGS NE
800 AM CDT TUE MAY 24 2016

NOTE: "FAIR" INDICATES FEW OR NO CLOUDS BELOW 12,000 FEET WITH NO
SIGNIFICANT WEATHER AND/OR OBSTRUCTIONS TO VISIBILITY.

...SOUTH CENTRAL NEBRASKA...

CITY           SKY/WX    TMP DP  RH WIND       PRES   REMARKS
GRAND ISLAND   CLOUDY    62  60  93 SE6       29.89F FOG
HASTINGS       CLOUDY    61  60  97 CALM      29.89F FOG
KEARNEY        CLOUDY    63  61  94 SE5       29.89F
ORD            CLOUDY    56  53  90 CALM      29.87F
YORK           LGT RAIN  63  59  88 SW5       29.90F
AURORA         CLOUDY    63  63 100 S7        29.89F
LEXINGTON      CLOUDY    56  51  82 SE7       29.85F
HOLDREGE       CLOUDY    61  60  95 N5        29.88S FOG
HEBRON         CLOUDY    61  58  90 SE7       29.93S

...NEBRASKA PANHANDLE...

CITY           SKY/WX    TMP DP  RH WIND       PRES   REMARKS
CHADRON        SUNNY     47  42  83 CALM      29.91R
ALLIANCE       SUNNY     44  42  93 CALM      29.92R
SCOTTSBLUFF    SUNNY     46  41  82 CALM      29.93R
SIDNEY         CLOUDY    50  43  77 SW3       29.95R

...WESTERN AND NORTH CENTRAL NEBRASKA...

CITY           SKY/WX    TMP DP  RH WIND       PRES   REMARKS
VALENTINE      SUNNY     52  45  77 SW5       29.89R
AINSWORTH      SUNNY     56  46  70 SW5       29.90S
ONEILL         CLOUDY    53  49  84 SW3       29.89S
BROKEN BOW     CLOUDY    57  50  77 N7        29.87F
IMPERIAL       CLOUDY    56  50  80 NW6       29.91R
NORTH PLATTE   CLOUDY    58  49  72 SW5       29.88R
MCCOOK         SUNNY     59  52  77 SE9       29.87R

...EASTERN NEBRASKA...

CITY           SKY/WX    TMP DP  RH WIND       PRES   REMARKS
NORFOLK        PTSUNNY   59  57  93 S5        29.88S
SO SIOUX CITY  CLOUDY    63  60  90 SE7       29.88S
TEKAMAH        CLOUDY    60  58  92 S3        29.90R
COLUMBUS       CLOUDY    59  54  82 E5        29.89F
ALBION         CLOUDY    61  58  90 CALM      29.88F FOG
OMAHA EPPLEY   CLOUDY    63  60  90 S3        29.90S
MILLARD        CLOUDY    62  60  95 CALM      29.89F
LINCOLN        CLOUDY    62  60  93 CALM      29.91R
NEBRASKA CITY  CLOUDY    64  64 100 SW6       29.91R
BEATRICE       LGT RAIN  64  57  79 S13       29.95R
FALLS CITY     CLOUDY    66  60  81 W10       29.90R

...NORTHERN KANSAS...

CITY           SKY/WX    TMP DP  RH WIND       PRES   REMARKS
GOODLAND       PTSUNNY   57  50  77 E13       29.91R
HILL CITY      CLOUDY    58  56  93 SE9       29.91R
NORTON         SUNNY     57  55  94 SE3       29.90R
PHILLIPSBURG   MOSUNNY   61  61 100 CALM      29.91F
SMITH CENTER   MOSUNNY   57  57 100 SW3       29.93R
BELOIT         CLOUDY    61  57  88 SE9       29.91R
HAYS           CLOUDY    59  48  67 E13       29.92R
RUSSELL        CLOUDY    58  56  93 E18       29.90R
CONCORDIA      LGT RAIN  60  58  92 S10       29.94R
SALINA         TSTM      62  60  93 SE14      29.97F
TOPEKA         CLOUDY    62  60  93 S6        29.92R



USA.gov is the U.S. government's official web portal to all federal, state and local government web resources and services.